Location: Fours
(44.3167°N, 6.7000°E)
Time: 19:54:46
(UTC+00:00)

Landsat 5 - Pass Details

Date: 16 October 2021
Orbit: 528 x 652 km, 98.2° (Epoch: 29 November)

Event Time Altitude Azimuth Distance (km) Brightness Sun altitude
Rises 17:47:43 0° 13° (NNE) 2,871 6.8 -11.6°
Reaches altitude 10° 17:49:52 10° 13° (NNE) 1,981 6.0 -12.0°
Maximum altitude 17:54:12 87° 284° (WNW) 636 3.6 -12.7°
Drops below altitude 10° 17:58:38 10° 196° (SSW) 2,027 6.4 -13.5°
Sets 18:00:52 0° 196° (SSW) 2,942 7.2 -13.9°
